Location: Saluda
(35.2377°N, 82.3468°W)
Time: 19:23:35
(UTC+00:00)

Vanguard 2 - Pass Details

Date: 03 October 2022
Orbit: 553 x 2933 km, 32.9° (Epoch: 06 December)

Event Time Altitude Azimuth Distance (km) Brightness Sun altitude
Rises 23:14:43 0° 282° (WNW) 6,147 14.0 -1.7°
Reaches altitude 10° 23:18:32 10° 279° (W) 5,351 13.6 -2.5°
Maximum altitude 23:34:54 58° 207° (SSW) 3,265 10.9 -5.8°
Drops below altitude 10° 23:51:10 10° 133° (SE) 5,302 11.4 -9.2°
Sets 23:54:57 0° 130° (SE) 6,088 11.6 -9.9°
